Year,Month,Day,Hour,Minute,Value (Times are PST for temperature in C)
2016,08,18,00,00,19.40
2016,08,18,00,01,19.40
2016,08,18,00,02,19.40
2016,08,18,00,03,19.40
2016,08,18,00,04,19.40
2016,08,18,00,05,19.30
2016,08,18,00,06,19.30
2016,08,18,00,07,19.30
2016,08,18,00,08,19.30
2016,08,18,00,09,19.30
2016,08,18,00,10,19.30
2016,08,18,00,11,19.30
2016,08,18,00,12,19.30
2016,08,18,00,13,19.30
2016,08,18,00,14,19.30
2016,08,18,00,15,19.30
2016,08,18,00,16,19.20
2016,08,18,00,17,19.20
2016,08,18,00,18,19.20
2016,08,18,00,19,19.20
2016,08,18,00,20,19.20
2016,08,18,00,21,19.20
2016,08,18,00,22,19.20
2016,08,18,00,23,19.20
2016,08,18,00,24,19.10
2016,08,18,00,25,19.10
2016,08,18,00,26,19.10
2016,08,18,00,27,19.10
2016,08,18,00,28,19.10
2016,08,18,00,29,19.10
2016,08,18,00,30,19.10
2016,08,18,00,31,19.10
2016,08,18,00,32,19.00
2016,08,18,00,33,19.00
2016,08,18,00,34,18.90
2016,08,18,00,35,18.90
2016,08,18,00,36,18.90
2016,08,18,00,37,18.90
2016,08,18,00,38,18.90
2016,08,18,00,39,18.80
2016,08,18,00,40,18.80
2016,08,18,00,41,18.80
2016,08,18,00,42,18.70
2016,08,18,00,43,18.70
2016,08,18,00,44,18.70
2016,08,18,00,45,18.70
2016,08,18,00,46,18.60
2016,08,18,00,47,18.60
2016,08,18,00,48,18.60
2016,08,18,00,49,18.60
2016,08,18,00,50,18.50
2016,08,18,00,51,18.50
2016,08,18,00,52,18.50
2016,08,18,00,53,18.40
2016,08,18,00,54,18.40
2016,08,18,00,55,18.40
2016,08,18,00,56,18.30
2016,08,18,00,58,18.30
2016,08,18,00,59,18.30
2016,08,18,01,00,18.30
2016,08,18,01,01,18.30
2016,08,18,01,02,18.20
2016,08,18,01,03,18.20
2016,08,18,01,04,18.20
2016,08,18,01,05,18.20
2016,08,18,01,06,18.20
2016,08,18,01,07,18.10
2016,08,18,01,08,18.10
2016,08,18,01,09,18.10
2016,08,18,01,10,18.10
2016,08,18,01,11,18.10
2016,08,18,01,12,18.10
2016,08,18,01,13,18.10
2016,08,18,01,14,18.00
2016,08,18,01,15,18.00
2016,08,18,01,16,18.00
2016,08,18,01,17,18.00
2016,08,18,01,18,18.00
2016,08,18,01,19,17.90
2016,08,18,01,20,17.90
2016,08,18,01,21,17.90
2016,08,18,01,22,17.90
2016,08,18,01,23,17.90
2016,08,18,01,24,17.90
2016,08,18,01,26,17.90
2016,08,18,01,27,17.80
2016,08,18,01,28,17.80
2016,08,18,01,29,17.80
2016,08,18,01,30,17.80
2016,08,18,01,31,17.80
2016,08,18,01,32,17.80
2016,08,18,01,33,17.70
2016,08,18,01,34,17.70
2016,08,18,01,35,17.70
2016,08,18,01,36,17.70
2016,08,18,01,37,17.70
2016,08,18,01,38,17.60
2016,08,18,01,39,17.60
2016,08,18,01,40,17.60
2016,08,18,01,41,17.50
2016,08,18,01,42,17.50
2016,08,18,01,43,17.40
2016,08,18,01,44,17.40
2016,08,18,01,45,17.40
2016,08,18,01,46,17.40
2016,08,18,01,47,17.30
2016,08,18,01,48,17.30
2016,08,18,01,49,17.30
2016,08,18,01,50,17.30
2016,08,18,01,51,17.30
2016,08,18,01,52,17.30
2016,08,18,01,53,17.20
2016,08,18,01,54,17.20
2016,08,18,01,55,17.20
2016,08,18,01,56,17.20
2016,08,18,01,57,17.20
2016,08,18,01,58,17.20
2016,08,18,01,59,17.20
2016,08,18,02,00,17.20
2016,08,18,02,01,17.20
2016,08,18,02,02,17.10
2016,08,18,02,03,17.10
2016,08,18,02,04,17.10
2016,08,18,02,05,17.10
2016,08,18,02,06,17.10
2016,08,18,02,07,17.00
2016,08,18,02,08,17.00
2016,08,18,02,09,16.90
2016,08,18,02,11,16.90
2016,08,18,02,12,16.90
2016,08,18,02,14,16.90
2016,08,18,02,15,16.80
2016,08,18,02,16,16.80
2016,08,18,02,17,16.80
2016,08,18,02,18,16.80
2016,08,18,02,19,16.80
2016,08,18,02,20,16.80
2016,08,18,02,21,16.80
2016,08,18,02,22,16.80
2016,08,18,02,23,16.80
2016,08,18,02,24,16.70
2016,08,18,02,25,16.70
2016,08,18,02,26,16.70
2016,08,18,02,27,16.70
2016,08,18,02,28,16.70
2016,08,18,02,29,16.70
2016,08,18,02,30,16.70
2016,08,18,02,31,16.70
2016,08,18,02,32,16.70
2016,08,18,02,33,16.70
2016,08,18,02,34,16.70
2016,08,18,02,35,16.70
2016,08,18,02,36,16.70
2016,08,18,02,37,16.60
2016,08,18,02,38,16.60
2016,08,18,02,39,16.60
2016,08,18,02,40,16.60
2016,08,18,02,41,16.60
2016,08,18,02,42,16.50
2016,08,18,02,44,16.50
2016,08,18,02,45,16.50
2016,08,18,02,46,16.40
2016,08,18,02,47,16.40
2016,08,18,02,48,16.40
2016,08,18,02,49,16.40
2016,08,18,02,50,16.40
2016,08,18,02,51,16.40
2016,08,18,02,52,16.40
2016,08,18,02,53,16.40
2016,08,18,02,54,16.40
2016,08,18,02,55,16.40
2016,08,18,02,56,16.40
2016,08,18,02,57,16.30
2016,08,18,02,58,16.40
2016,08,18,02,59,16.40
2016,08,18,03,00,16.30
2016,08,18,03,01,16.30
2016,08,18,03,02,16.30
2016,08,18,03,03,16.30
2016,08,18,03,04,16.30
2016,08,18,03,05,16.30
2016,08,18,03,06,16.30
2016,08,18,03,07,16.30
2016,08,18,03,08,16.30
2016,08,18,03,09,16.30
2016,08,18,03,10,16.30
2016,08,18,03,11,16.30
2016,08,18,03,12,16.20
2016,08,18,03,13,16.20
2016,08,18,03,14,16.20
2016,08,18,03,15,16.20
2016,08,18,03,16,16.20
2016,08,18,03,17,16.20
2016,08,18,03,18,16.20
2016,08,18,03,19,16.20
2016,08,18,03,20,16.20
2016,08,18,03,21,16.20
2016,08,18,03,22,16.10
2016,08,18,03,23,16.10
2016,08,18,03,24,16.10
2016,08,18,03,25,16.10
2016,08,18,03,26,16.10
2016,08,18,03,27,16.10
2016,08,18,03,28,16.10
2016,08,18,03,29,16.00
2016,08,18,03,30,16.00
2016,08,18,03,31,16.00
2016,08,18,03,32,16.00
2016,08,18,03,33,16.00
2016,08,18,03,34,16.00
2016,08,18,03,35,15.90
2016,08,18,03,36,15.90
2016,08,18,03,37,15.90
2016,08,18,03,38,15.90
2016,08,18,03,39,15.90
2016,08,18,03,40,15.90
2016,08,18,03,41,15.90
2016,08,18,03,42,15.90
2016,08,18,03,43,15.90
2016,08,18,03,44,15.90
2016,08,18,03,45,15.90
2016,08,18,03,46,15.90
2016,08,18,03,47,15.90
2016,08,18,03,48,15.90
2016,08,18,03,49,15.80
2016,08,18,03,50,15.80
2016,08,18,03,51,15.80
2016,08,18,03,52,15.80
2016,08,18,03,53,15.80
2016,08,18,03,54,15.80
2016,08,18,03,55,15.80
2016,08,18,03,56,15.80
2016,08,18,03,57,15.80
2016,08,18,03,58,15.80
2016,08,18,03,59,15.80
2016,08,18,04,00,15.80
2016,08,18,04,01,15.80
2016,08,18,04,02,15.70
2016,08,18,04,03,15.70
2016,08,18,04,04,15.70
2016,08,18,04,05,15.70
2016,08,18,04,06,15.70
2016,08,18,04,07,15.70
2016,08,18,04,08,15.70
2016,08,18,04,09,15.70
2016,08,18,04,10,15.70
2016,08,18,04,11,15.60
2016,08,18,04,12,15.60
2016,08,18,04,13,15.60
2016,08,18,04,14,15.60
2016,08,18,04,15,15.60
2016,08,18,04,16,15.60
2016,08,18,04,17,15.60
2016,08,18,04,18,15.60
2016,08,18,04,19,15.50
2016,08,18,04,20,15.50
2016,08,18,04,21,15.50
2016,08,18,04,22,15.50
2016,08,18,04,23,15.50
2016,08,18,04,24,15.50
2016,08,18,04,25,15.40
2016,08,18,04,26,15.40
2016,08,18,04,27,15.40
2016,08,18,04,28,15.40
2016,08,18,04,29,15.40
2016,08,18,04,30,15.40
2016,08,18,04,31,15.40
2016,08,18,04,32,15.40
2016,08,18,04,33,15.40
2016,08,18,04,34,15.40
2016,08,18,04,35,15.40
2016,08,18,04,36,15.40
2016,08,18,04,37,15.40
2016,08,18,04,40,15.40
2016,08,18,04,42,15.30
2016,08,18,04,43,15.30
2016,08,18,04,44,15.30
2016,08,18,04,45,15.30
2016,08,18,04,46,15.30
2016,08,18,04,47,15.30
2016,08,18,04,48,15.30
2016,08,18,04,49,15.30
2016,08,18,04,50,15.20
2016,08,18,04,51,15.20
2016,08,18,04,52,15.20
2016,08,18,04,53,15.20
2016,08,18,04,54,15.20
2016,08,18,04,55,15.20
2016,08,18,04,56,15.20
2016,08,18,04,57,15.10
2016,08,18,04,58,15.10
2016,08,18,04,59,15.10
2016,08,18,05,00,15.10
2016,08,18,05,01,15.10
2016,08,18,05,02,15.10
2016,08,18,05,03,15.10
2016,08,18,05,04,15.10
2016,08,18,05,05,15.00
2016,08,18,05,06,15.00
2016,08,18,05,07,15.00
2016,08,18,05,08,15.00
2016,08,18,05,09,14.90
2016,08,18,05,10,14.90
2016,08,18,05,11,14.90
2016,08,18,05,12,14.90
2016,08,18,05,13,14.90
2016,08,18,05,14,14.90
2016,08,18,05,15,14.90
2016,08,18,05,16,14.90
2016,08,18,05,17,14.80
2016,08,18,05,18,14.80
2016,08,18,05,19,14.80
2016,08,18,05,20,14.80
2016,08,18,05,21,14.80
2016,08,18,05,22,14.80
2016,08,18,05,23,14.80
2016,08,18,05,24,14.70
2016,08,18,05,25,14.70
2016,08,18,05,26,14.70
2016,08,18,05,27,14.70
2016,08,18,05,28,14.70
2016,08,18,05,29,14.70
2016,08,18,05,30,14.60
2016,08,18,05,31,14.60
2016,08,18,05,32,14.60
2016,08,18,05,33,14.60
2016,08,18,05,34,14.60
2016,08,18,05,35,14.50
2016,08,18,05,36,14.50
2016,08,18,05,37,14.50
2016,08,18,05,38,14.40
2016,08,18,05,39,14.40
2016,08,18,05,40,14.40
2016,08,18,05,41,14.40
2016,08,18,05,42,14.40
2016,08,18,05,43,14.40
2016,08,18,05,44,14.40
2016,08,18,05,45,14.30
2016,08,18,05,46,14.30
2016,08,18,05,47,14.30
2016,08,18,05,48,14.30
2016,08,18,05,49,14.30
2016,08,18,05,50,14.30
2016,08,18,05,51,14.30
2016,08,18,05,52,14.30
2016,08,18,05,53,14.30
2016,08,18,05,54,14.30
2016,08,18,05,55,14.30
2016,08,18,05,56,14.30
2016,08,18,05,57,14.30
2016,08,18,05,58,14.30
2016,08,18,05,59,14.30
2016,08,18,06,00,14.30
2016,08,18,06,01,14.30
2016,08,18,06,02,14.30
2016,08,18,06,03,14.40
2016,08,18,06,04,14.40
2016,08,18,06,05,14.40
2016,08,18,06,06,14.40
2016,08,18,06,07,14.40
2016,08,18,06,08,14.40
2016,08,18,06,09,14.40
2016,08,18,06,10,14.40
2016,08,18,06,11,14.40
2016,08,18,06,12,14.40
2016,08,18,06,13,14.40
2016,08,18,06,14,14.40
2016,08,18,06,15,14.40
2016,08,18,06,16,14.40
2016,08,18,06,17,14.40
2016,08,18,06,18,14.40
2016,08,18,06,19,14.40
2016,08,18,06,20,14.40
2016,08,18,06,21,14.40
2016,08,18,06,22,14.30
2016,08,18,06,23,14.40
2016,08,18,06,24,14.40
2016,08,18,06,25,14.40
2016,08,18,06,26,14.40
2016,08,18,06,27,14.40
2016,08,18,06,28,14.40
2016,08,18,06,29,14.40
2016,08,18,06,30,14.40
2016,08,18,06,31,14.40
2016,08,18,06,32,14.40
2016,08,18,06,33,14.40
2016,08,18,06,34,14.50
2016,08,18,06,35,14.50
2016,08,18,06,36,14.50
2016,08,18,06,37,14.50
2016,08,18,06,38,14.50
2016,08,18,06,39,14.50
2016,08,18,06,40,14.60
2016,08,18,06,41,14.60
2016,08,18,06,42,14.60
2016,08,18,06,43,14.60
2016,08,18,06,44,14.60
2016,08,18,06,45,14.60
2016,08,18,06,46,14.60
2016,08,18,06,47,14.60
2016,08,18,06,48,14.60
2016,08,18,06,49,14.60
2016,08,18,06,50,14.60
2016,08,18,06,51,14.60
2016,08,18,06,52,14.60
2016,08,18,06,53,14.60
2016,08,18,06,54,14.60
2016,08,18,06,55,14.60
2016,08,18,06,56,14.60
2016,08,18,06,57,14.60
2016,08,18,06,58,14.60
2016,08,18,06,59,14.50
2016,08,18,07,00,14.50
2016,08,18,07,01,14.50
2016,08,18,07,02,14.50
2016,08,18,07,03,14.50
2016,08,18,07,04,14.50
2016,08,18,07,05,14.50
2016,08,18,07,06,14.60
2016,08,18,07,07,14.60
2016,08,18,07,08,14.60
2016,08,18,07,09,14.60
2016,08,18,07,10,14.60
2016,08,18,07,11,14.70
2016,08,18,07,12,14.70
2016,08,18,07,13,14.70
2016,08,18,07,14,14.80
2016,08,18,07,15,14.80
2016,08,18,07,16,14.80
2016,08,18,07,17,14.80
2016,08,18,07,18,14.80
2016,08,18,07,19,14.90
2016,08,18,07,20,14.90
2016,08,18,07,21,14.90
2016,08,18,07,22,14.90
2016,08,18,07,23,15.00
2016,08,18,07,24,15.00
2016,08,18,07,25,15.10
2016,08,18,07,26,15.10
2016,08,18,07,27,15.10
2016,08,18,07,28,15.20
2016,08,18,07,29,15.20
2016,08,18,07,30,15.20
2016,08,18,07,31,15.30
2016,08,18,07,32,15.30
2016,08,18,07,33,15.30
2016,08,18,07,34,15.40
2016,08,18,07,35,15.50
2016,08,18,07,36,15.60
2016,08,18,07,37,15.60
2016,08,18,07,38,15.70
2016,08,18,07,39,15.70
2016,08,18,07,40,15.80
2016,08,18,07,41,15.80
2016,08,18,07,42,15.90
2016,08,18,07,43,15.90
2016,08,18,07,44,16.00
2016,08,18,07,45,16.10
2016,08,18,07,46,16.10
2016,08,18,07,47,16.10
2016,08,18,07,48,16.20
2016,08,18,07,49,16.20
2016,08,18,07,50,16.20
2016,08,18,07,51,16.20
2016,08,18,07,52,16.30
2016,08,18,07,53,16.30
2016,08,18,07,54,16.30
2016,08,18,07,55,16.40
2016,08,18,07,56,16.50
2016,08,18,07,57,16.60
2016,08,18,07,58,16.60
2016,08,18,07,59,16.70
2016,08,18,08,00,16.80
2016,08,18,08,01,16.80
2016,08,18,08,02,16.90
2016,08,18,08,03,17.10
2016,08,18,08,04,17.20
2016,08,18,08,05,17.30
2016,08,18,08,06,17.30
2016,08,18,08,07,17.40
2016,08,18,08,08,17.60
2016,08,18,08,09,17.70
2016,08,18,08,10,17.80
2016,08,18,08,11,17.90
2016,08,18,08,12,18.10
2016,08,18,08,13,18.10
2016,08,18,08,14,18.20
2016,08,18,08,15,18.30
2016,08,18,08,16,18.40
2016,08,18,08,17,18.40
2016,08,18,08,18,18.60
2016,08,18,08,19,18.70
2016,08,18,08,20,18.70
2016,08,18,08,21,18.90
2016,08,18,08,22,19.00
2016,08,18,08,23,19.10
2016,08,18,08,24,19.20
2016,08,18,08,25,19.30
2016,08,18,08,26,19.30
2016,08,18,08,27,19.40
2016,08,18,08,28,19.40
2016,08,18,08,29,19.50
2016,08,18,08,30,19.60
2016,08,18,08,31,19.60
2016,08,18,08,32,19.60
2016,08,18,08,33,19.70
2016,08,18,08,34,19.70
2016,08,18,08,35,19.60
2016,08,18,08,36,19.60
2016,08,18,08,37,19.60
2016,08,18,08,38,19.60
2016,08,18,08,39,19.60
2016,08,18,08,40,19.60
2016,08,18,08,41,19.60
2016,08,18,08,42,19.60
2016,08,18,08,43,19.60
2016,08,18,08,44,19.70
2016,08,18,08,45,19.70
2016,08,18,08,46,19.70
2016,08,18,08,47,19.70
2016,08,18,08,48,19.80
2016,08,18,08,49,19.80
2016,08,18,08,50,19.80
2016,08,18,08,51,19.80
2016,08,18,08,52,19.90
2016,08,18,08,53,19.90
2016,08,18,08,54,20.00
2016,08,18,08,55,20.10
2016,08,18,08,56,20.20
2016,08,18,08,57,20.20
2016,08,18,08,58,20.30
2016,08,18,08,59,20.30
2016,08,18,09,00,20.40
2016,08,18,09,01,20.40
2016,08,18,09,02,20.40
2016,08,18,09,03,20.40
2016,08,18,09,04,20.40
2016,08,18,09,05,20.50
2016,08,18,09,06,20.60
2016,08,18,09,07,20.60
2016,08,18,09,08,20.70
2016,08,18,09,09,20.70
2016,08,18,09,10,20.70
2016,08,18,09,11,20.70
2016,08,18,09,12,20.70
2016,08,18,09,13,20.80
2016,08,18,09,14,20.80
2016,08,18,09,15,20.80
2016,08,18,09,16,20.80
2016,08,18,09,17,20.80
2016,08,18,09,18,20.80
2016,08,18,09,19,20.90
2016,08,18,09,20,20.90
2016,08,18,09,21,21.00
2016,08,18,09,22,21.10
2016,08,18,09,23,21.20
2016,08,18,09,24,21.20
2016,08,18,09,25,21.30
2016,08,18,09,26,21.30
2016,08,18,09,27,21.40
2016,08,18,09,28,21.40
2016,08,18,09,29,21.50
2016,08,18,09,30,21.60
2016,08,18,09,31,21.60
2016,08,18,09,32,21.70
2016,08,18,09,33,21.70
2016,08,18,09,34,21.80
2016,08,18,09,35,21.80
2016,08,18,09,36,21.90
2016,08,18,09,37,21.90
2016,08,18,09,38,22.10
2016,08,18,09,39,22.20
2016,08,18,09,40,22.30
2016,08,18,09,41,22.40
2016,08,18,09,42,22.50
2016,08,18,09,43,22.60
2016,08,18,09,44,22.70
2016,08,18,09,45,22.80
2016,08,18,09,46,22.90
2016,08,18,09,47,23.00
2016,08,18,09,48,23.10
2016,08,18,09,49,23.20
2016,08,18,09,50,23.20
2016,08,18,09,51,23.30
2016,08,18,09,52,23.40
2016,08,18,09,53,23.60
2016,08,18,09,54,23.60
2016,08,18,09,55,23.70
2016,08,18,09,56,23.80
2016,08,18,09,57,23.80
2016,08,18,09,58,24.00
2016,08,18,09,59,24.10
2016,08,18,10,00,24.10
2016,08,18,10,01,24.20
2016,08,18,10,02,24.20
2016,08,18,10,03,24.20
2016,08,18,10,04,24.20
2016,08,18,10,05,24.20
2016,08,18,10,06,24.20
2016,08,18,10,07,24.20
2016,08,18,10,08,24.20
2016,08,18,10,09,24.20
2016,08,18,10,10,24.20
2016,08,18,10,11,24.10
2016,08,18,10,12,24.10
2016,08,18,10,13,24.10
2016,08,18,10,14,24.10
2016,08,18,10,15,24.20
2016,08,18,10,16,24.20
2016,08,18,10,17,24.30
2016,08,18,10,18,24.30
2016,08,18,10,19,24.40
2016,08,18,10,20,24.50
2016,08,18,10,21,24.60
2016,08,18,10,22,24.70
2016,08,18,10,23,24.70
2016,08,18,10,24,24.80
2016,08,18,10,25,24.80
2016,08,18,10,26,24.80
2016,08,18,10,27,24.80
2016,08,18,10,28,24.80
2016,08,18,10,29,24.90
2016,08,18,10,30,24.90
2016,08,18,10,31,24.90
2016,08,18,10,32,24.90
2016,08,18,10,33,25.00
2016,08,18,10,34,25.10
2016,08,18,10,35,25.20
2016,08,18,10,36,25.20
2016,08,18,10,37,25.30
2016,08,18,10,38,25.30
2016,08,18,10,39,25.30
2016,08,18,10,40,25.20
2016,08,18,10,41,25.30
2016,08,18,10,42,25.30
2016,08,18,10,43,25.30
2016,08,18,10,44,25.30
2016,08,18,10,45,25.30
2016,08,18,10,46,25.30
2016,08,18,10,47,25.30
2016,08,18,10,48,25.30
2016,08,18,10,49,25.30
2016,08,18,10,50,25.30
2016,08,18,10,51,25.40
2016,08,18,10,52,25.60
2016,08,18,10,53,25.70
2016,08,18,10,54,25.80
2016,08,18,10,55,25.90
2016,08,18,10,56,26.10
2016,08,18,10,57,26.20
2016,08,18,10,58,26.30
2016,08,18,10,59,26.30
2016,08,18,11,00,26.40
2016,08,18,11,01,26.50
2016,08,18,11,02,26.60
2016,08,18,11,03,26.60
2016,08,18,11,04,26.60
2016,08,18,11,05,26.70
2016,08,18,11,06,26.70
2016,08,18,11,07,26.70
2016,08,18,11,08,26.80
2016,08,18,11,09,26.80
2016,08,18,11,10,26.90
2016,08,18,11,11,27.00
2016,08,18,11,12,27.10
2016,08,18,11,13,27.20
2016,08,18,11,14,27.30
2016,08,18,11,15,27.40
2016,08,18,11,16,27.50
2016,08,18,11,17,27.50
2016,08,18,11,18,27.50
2016,08,18,11,19,27.60
2016,08,18,11,20,27.60
2016,08,18,11,21,27.60
2016,08,18,11,22,27.60
2016,08,18,11,23,27.60
2016,08,18,11,24,27.60
2016,08,18,11,25,27.60
2016,08,18,11,26,27.60
2016,08,18,11,27,27.60
2016,08,18,11,28,27.70
2016,08,18,11,29,27.70
2016,08,18,11,30,27.70
2016,08,18,11,31,27.80
2016,08,18,11,32,27.80
2016,08,18,11,33,27.80
2016,08,18,11,34,27.90
2016,08,18,11,35,28.10
2016,08,18,11,36,28.10
2016,08,18,11,37,28.20
2016,08,18,11,38,28.30
2016,08,18,11,39,28.30
2016,08,18,11,40,28.40
2016,08,18,11,41,28.40
2016,08,18,11,42,28.40
2016,08,18,11,43,28.40
2016,08,18,11,44,28.40
2016,08,18,11,45,28.50
2016,08,18,11,46,28.50
2016,08,18,11,47,28.60
2016,08,18,11,48,28.60
2016,08,18,11,49,28.60
2016,08,18,11,50,28.60
2016,08,18,11,51,28.60
2016,08,18,11,52,28.60
2016,08,18,11,53,28.60
2016,08,18,11,54,28.70
2016,08,18,11,55,28.70
2016,08,18,11,56,28.80
2016,08,18,11,57,28.80
2016,08,18,11,58,28.80
2016,08,18,11,59,28.90
2016,08,18,12,00,28.90
2016,08,18,12,01,29.00
2016,08,18,12,02,29.10
2016,08,18,12,03,29.10
2016,08,18,12,04,29.10
2016,08,18,12,05,29.10
2016,08,18,12,06,29.10
2016,08,18,12,07,29.10
2016,08,18,12,08,29.10
2016,08,18,12,09,29.10
2016,08,18,12,10,29.10
2016,08,18,12,11,29.10
2016,08,18,12,12,29.00
2016,08,18,12,13,28.90
2016,08,18,12,14,28.90
2016,08,18,12,15,29.00
2016,08,18,12,16,29.10
2016,08,18,12,17,29.20
2016,08,18,12,18,29.20
2016,08,18,12,19,29.30
2016,08,18,12,20,29.30
2016,08,18,12,21,29.40
2016,08,18,12,22,29.40
2016,08,18,12,23,29.40
2016,08,18,12,24,29.40
2016,08,18,12,25,29.40
2016,08,18,12,26,29.40
2016,08,18,12,27,29.40
2016,08,18,12,28,29.50
2016,08,18,12,29,29.60
2016,08,18,12,30,29.60
2016,08,18,12,31,29.60
2016,08,18,12,32,29.60
2016,08,18,12,33,29.70
2016,08,18,12,34,29.70
2016,08,18,12,35,29.70
2016,08,18,12,36,29.70
2016,08,18,12,37,29.70
2016,08,18,12,38,29.70
2016,08,18,12,39,29.80
2016,08,18,12,40,29.80
2016,08,18,12,41,29.80
2016,08,18,12,42,29.90
2016,08,18,12,43,30.00
2016,08,18,12,44,30.10
2016,08,18,12,45,30.10
2016,08,18,12,46,30.10
2016,08,18,12,47,30.10
2016,08,18,12,48,30.20
2016,08,18,12,49,30.30
2016,08,18,12,50,30.30
2016,08,18,12,51,30.30
2016,08,18,12,52,30.30
2016,08,18,12,53,30.30
2016,08,18,12,54,30.40
2016,08,18,12,55,30.40
2016,08,18,12,56,30.40
2016,08,18,12,57,30.40
2016,08,18,12,58,30.40
2016,08,18,12,59,30.40
2016,08,18,13,00,30.40
2016,08,18,13,01,30.60
2016,08,18,13,02,30.60
2016,08,18,13,03,30.70
2016,08,18,13,04,30.80
2016,08,18,13,05,30.80
2016,08,18,13,06,30.80
2016,08,18,13,07,30.80
2016,08,18,13,08,30.80
2016,08,18,13,09,30.80
2016,08,18,13,10,30.80
2016,08,18,13,11,30.80
2016,08,18,13,12,30.80
2016,08,18,13,13,30.90
2016,08,18,13,14,30.90
2016,08,18,13,15,31.00
2016,08,18,13,16,31.00
2016,08,18,13,17,31.00
2016,08,18,13,18,31.00
2016,08,18,13,19,31.10
2016,08,18,13,20,31.10
2016,08,18,13,21,31.10
2016,08,18,13,22,31.10
2016,08,18,13,23,31.10
2016,08,18,13,24,31.20
2016,08,18,13,25,31.30
2016,08,18,13,26,31.40
2016,08,18,13,27,31.40
2016,08,18,13,28,31.60
2016,08,18,13,29,31.60
2016,08,18,13,30,31.70
2016,08,18,13,31,31.70
2016,08,18,13,32,31.60
2016,08,18,13,33,31.60
2016,08,18,13,34,31.60
2016,08,18,13,35,31.70
2016,08,18,13,36,31.70
2016,08,18,13,37,31.70
2016,08,18,13,38,31.60
2016,08,18,13,39,31.70
2016,08,18,13,40,31.70
2016,08,18,13,41,31.70
2016,08,18,13,42,31.80
2016,08,18,13,43,31.80
2016,08,18,13,44,31.80
2016,08,18,13,45,31.90
2016,08,18,13,46,31.80
2016,08,18,13,47,31.80
2016,08,18,13,48,31.80
2016,08,18,13,49,31.80
2016,08,18,13,50,31.80
2016,08,18,13,51,31.90
2016,08,18,13,52,32.00
2016,08,18,13,53,32.10
2016,08,18,13,54,32.10
2016,08,18,13,55,32.10
2016,08,18,13,56,32.10
2016,08,18,13,57,32.20
2016,08,18,13,58,32.20
2016,08,18,13,59,32.20
2016,08,18,14,00,32.30
2016,08,18,14,01,32.30
2016,08,18,14,02,32.30
2016,08,18,14,03,32.40
2016,08,18,14,04,32.50
2016,08,18,14,05,32.60
2016,08,18,14,06,32.60
2016,08,18,14,07,32.60
2016,08,18,14,08,32.70
2016,08,18,14,09,32.70
2016,08,18,14,10,32.70
2016,08,18,14,11,32.80
2016,08,18,14,12,32.80
2016,08,18,14,13,32.80
2016,08,18,14,14,32.80
2016,08,18,14,15,32.90
2016,08,18,14,16,32.90
2016,08,18,14,17,33.00
2016,08,18,14,18,33.00
2016,08,18,14,19,33.10
2016,08,18,14,20,33.20
2016,08,18,14,21,33.20
2016,08,18,14,22,33.30
2016,08,18,14,23,33.30
2016,08,18,14,24,33.30
2016,08,18,14,25,33.40
2016,08,18,14,26,33.30
2016,08,18,14,27,33.30
2016,08,18,14,28,33.30
2016,08,18,14,29,33.30
2016,08,18,14,30,33.30
2016,08,18,14,31,33.30
2016,08,18,14,32,33.30
2016,08,18,14,33,33.20
2016,08,18,14,34,33.20
2016,08,18,14,35,33.20
2016,08,18,14,36,33.20
2016,08,18,14,37,33.20
2016,08,18,14,38,33.20
2016,08,18,14,39,33.30
2016,08,18,14,40,33.30
2016,08,18,14,41,33.30
2016,08,18,14,42,33.30
2016,08,18,14,43,33.40
2016,08,18,14,44,33.40
2016,08,18,14,45,33.40
2016,08,18,14,46,33.50
2016,08,18,14,47,33.60
2016,08,18,14,48,33.60
2016,08,18,14,49,33.70
2016,08,18,14,50,33.70
2016,08,18,14,51,33.70
2016,08,18,14,52,33.80
2016,08,18,14,53,33.80
2016,08,18,14,54,33.80
2016,08,18,14,55,33.80
2016,08,18,14,56,33.80
2016,08,18,14,57,33.90
2016,08,18,14,58,33.90
2016,08,18,14,59,33.90
2016,08,18,15,00,33.90
2016,08,18,15,01,33.90
2016,08,18,15,02,34.00
2016,08,18,15,03,34.10
2016,08,18,15,04,34.10
2016,08,18,15,05,34.20
2016,08,18,15,06,34.20
2016,08,18,15,07,34.10
2016,08,18,15,08,34.10
2016,08,18,15,09,34.10
2016,08,18,15,10,34.10
2016,08,18,15,11,34.10
2016,08,18,15,12,34.10
2016,08,18,15,13,34.10
2016,08,18,15,14,34.10
2016,08,18,15,15,34.10
2016,08,18,15,16,34.10
2016,08,18,15,17,34.10
2016,08,18,15,18,34.20
2016,08,18,15,19,34.10
2016,08,18,15,20,34.10
2016,08,18,15,21,34.00
2016,08,18,15,22,33.90
2016,08,18,15,23,33.90
2016,08,18,15,24,33.90
2016,08,18,15,25,33.90
2016,08,18,15,26,33.90
2016,08,18,15,27,33.90
2016,08,18,15,28,33.90
2016,08,18,15,29,33.90
2016,08,18,15,30,33.90
2016,08,18,15,31,33.90
2016,08,18,15,32,34.10
2016,08,18,15,33,34.10
2016,08,18,15,34,34.10
2016,08,18,15,35,34.20
2016,08,18,15,36,34.20
2016,08,18,15,37,34.20
2016,08,18,15,38,34.10
2016,08,18,15,39,34.10
2016,08,18,15,40,34.10
2016,08,18,15,41,34.10
2016,08,18,15,42,34.00
2016,08,18,15,43,34.00
2016,08,18,15,44,34.00
2016,08,18,15,45,34.00
2016,08,18,15,46,34.00
2016,08,18,15,47,34.00
2016,08,18,15,48,34.10
2016,08,18,15,49,34.10
2016,08,18,15,50,34.00
2016,08,18,15,51,34.10
2016,08,18,15,52,34.10
2016,08,18,15,53,34.10
2016,08,18,15,54,34.10
2016,08,18,15,55,34.10
2016,08,18,15,56,34.00
2016,08,18,15,57,34.00
2016,08,18,15,58,34.00
2016,08,18,15,59,33.90
2016,08,18,16,00,33.90
2016,08,18,16,01,33.80
2016,08,18,16,02,33.80
2016,08,18,16,03,33.80
2016,08,18,16,04,33.80
2016,08,18,16,05,33.80
2016,08,18,16,06,33.80
2016,08,18,16,07,33.80
2016,08,18,16,08,33.80
2016,08,18,16,09,33.80
2016,08,18,16,10,33.90
2016,08,18,16,11,33.90
2016,08,18,16,12,34.00
2016,08,18,16,13,34.10
2016,08,18,16,14,34.10
2016,08,18,16,15,34.10
2016,08,18,16,16,34.10
2016,08,18,16,17,34.10
2016,08,18,16,18,34.10
2016,08,18,16,19,34.10
2016,08,18,16,20,34.00
2016,08,18,16,21,34.00
2016,08,18,16,22,34.00
2016,08,18,16,23,34.10
2016,08,18,16,24,34.10
2016,08,18,16,25,34.10
2016,08,18,16,26,34.10
2016,08,18,16,27,34.20
2016,08,18,16,28,34.20
2016,08,18,16,29,34.10
2016,08,18,16,30,34.10
2016,08,18,16,31,34.10
2016,08,18,16,32,34.10
2016,08,18,16,33,34.10
2016,08,18,16,34,34.00
2016,08,18,16,35,33.90
2016,08,18,16,36,33.90
2016,08,18,16,37,33.90
2016,08,18,16,38,33.90
2016,08,18,16,39,33.90
2016,08,18,16,40,33.90
2016,08,18,16,41,33.90
2016,08,18,16,42,33.90
2016,08,18,16,43,33.90
2016,08,18,16,45,33.90
2016,08,18,16,46,33.90
2016,08,18,16,47,33.90
2016,08,18,16,48,33.90
2016,08,18,16,49,33.90
2016,08,18,16,50,33.90
2016,08,18,16,51,34.00
2016,08,18,16,52,34.10
2016,08,18,16,53,34.10
2016,08,18,16,54,34.00
2016,08,18,16,55,33.90
2016,08,18,16,56,33.90
2016,08,18,16,57,33.90
2016,08,18,16,58,33.90
2016,08,18,16,59,33.80
2016,08,18,17,00,33.80
2016,08,18,17,01,33.80
2016,08,18,17,02,33.80
2016,08,18,17,03,33.80
2016,08,18,17,04,33.80
2016,08,18,17,05,33.80
2016,08,18,17,06,33.80
2016,08,18,17,07,33.80
2016,08,18,17,08,33.90
2016,08,18,17,09,33.80
2016,08,18,17,10,33.80
2016,08,18,17,11,33.80
2016,08,18,17,12,33.70
2016,08,18,17,13,33.70
2016,08,18,17,14,33.70
2016,08,18,17,15,33.70
2016,08,18,17,16,33.70
2016,08,18,17,17,33.70
2016,08,18,17,18,33.70
2016,08,18,17,19,33.70
2016,08,18,17,20,33.70
2016,08,18,17,21,33.70
2016,08,18,17,22,33.70
2016,08,18,17,23,33.70
2016,08,18,17,24,33.70
2016,08,18,17,25,33.70
2016,08,18,17,26,33.60
2016,08,18,17,27,33.60
2016,08,18,17,28,33.60